Location: Brantley
(31.5822°N, 86.2569°W)
Time: 20:33:48
(UTC+00:00)

Injun/Solrad 3 - Pass Details

Date: 20 February 2026
Orbit: 872 x 984 km, 66.8° (Epoch: 8 March)

Event Time Altitude Azimuth Distance (km) Brightness Sun altitude
Rises 01:25:48 0° 340° (NNW) 3,593 11.2 -24.2°
Reaches altitude 10° 01:28:24 10° 346° (NNW) 2,663 10.5 -24.7°
Enters shadow 01:33:42 48° 39° (NE) 1,237 8.2 -25.9°
Maximum altitude 01:34:26 50° 61° (ENE) 1,204 - -26.0°
Drops below altitude 10° 01:40:35 10° 136° (SE) 2,714 - -27.3°
Sets 01:43:14 0° 142° (SE) 3,667 - -27.9°
